Location: Duac?
(36.9744°N, 30.6500°E)
Time: 07:10:36
(UTC+00:00)

DELTA 2 DEB (DPAF) - Pass Details

Date: 05 August 2024
Orbit: 586 x 590 km, 98.4° (Epoch: 10 September)

Event Time Altitude Azimuth Distance (km) Brightness Sun altitude
Rises 17:54:40 0° 18° (NNE) 2,820 7.6 -10.6°
Reaches altitude 10° 17:56:52 10° 23° (NNE) 1,916 6.7 -11.0°
Maximum altitude 18:00:56 54° 101° (E) 715 4.0 -11.7°
Drops below altitude 10° 18:04:59 10° 179° (S) 1,906 6.2 -12.4°
Sets 18:07:10 0° 184° (S) 2,804 7.1 -12.8°
